Regional Weather Roundup
Issued by NWS

Home | Current Version | Previous Version | Text Only | Print | Product List | Glossary On
Versions: 1 2 3 4 5 6 7 8 9 10 11 12 13 14 15 16 17 18 19 20 21 22 23 24 25 26 27 28 29 30 31 32 33 34 35 36 37 38 39 40 41 42 43 44 45 46 47 48 49 50
000
ASCA42 TJSJ 260210
RWRPR
PUERTO RICO/U.S. VIRGIN ISLANDS HOURLY WEATHER ROUNDUP
NATIONAL WEATHER SERVICE SAN JUAN PR
1000 PM AST SAT FEB 25 2017

PRZ001>002-007>008-010-260300-
PUERTO RICO

CITY           SKY/WX    TMP DP  RH WIND       PRES   REMARKS
SAN JUAN LMM   PTCLDY    79  70  73 CALM      30.03R
CEIBA          CLEAR     73  70  88 CALM      30.06R
$$

VIZ001>002-260300-
U.S. VIRGIN ISLANDS

CITY           SKY/WX    TMP DP  RH WIND       PRES   REMARKS
CHARLOTTE AMA  CLEAR     75  70  83 E6        30.04R
CHRISTIANSTED  CLEAR     73  66  78 NE6       30.05R
$$

HOURLY WEATHER ROUNDUP FOR THE NEWS MEDIA

CITY           SKY/WX    TMP DP  RH WIND       PRES   REMARKS
ORLANDO        CLEAR     71  60  68 W7        29.94R
NEW YORK       LGT RAIN  52  46  80 NW14G21   29.60R
NEWARK         LGT RAIN  50  43  77 NW12      29.60S
CHICAGO        PTCLDY    26  14  60 W9        29.99R WCI  17
HARTFORD       LGT RAIN  52  50  93 S9        29.49F FOG
BOSTON         CLOUDY    54  54 100 S12       29.46F FOG
DALLAS         PTCLDY    50  21  32 E7        30.08S
PHILADELPHIA   CLOUDY    51  44  77 NW10      29.65R
LOS ANGELES    CLOUDY    54  47  77 W5        30.01S
WASHINGTON DC  PTCLDY    48  25  40 NW16G30   29.73R


USA.gov is the U.S. government's official web portal to all federal, state and local government web resources and services.